Preview of NWS' New Version of Forecast
This preview is not operational and should not be used for support decisions.

Regional Weather Roundup (RWR)

Issued by Mobile/Pensacola (MOB)

                            
000
ASUS44 KMOB 200712
RWRMOB
REGIONAL WEATHER ROUNDUP
NATIONAL WEATHER SERVICE MOBILE AL
200 AM CDT MON MAY 20 2019

NOTE: "FAIR" INDICATES FEW OR NO CLOUDS BELOW 12,000 FEET WITH NO
      SIGNIFICANT WEATHER AND/OR OBSTRUCTIONS TO VISIBILITY.

  * THESE STATIONS ARE PART OF THE UNIVERSITY OF SOUTH ALABAMA 
    MESONET AND ARE NOT UNDER NWS OR FAA QUALITY CONTROL. 

ALZ061>064-200800-
COASTAL ALABAMA
  
CITY           SKY/WX    TMP DP  RH WIND       PRES   REMARKS
MOBILE REG APT FAIR      70  68  93 CALM      30.01F                  
BROOKLEY FIELD FAIR      72  71  97 CALM      30.01F                  
USA CAMPUS*      N/A     68  68 100 CALM      30.02F                  
DOG RIVER*       N/A     72  72 100 CALM      30.02F                  

  
CITY           SKY/WX    TMP DP  RH WIND       PRES   REMARKS
GULF SHORES    FAIR      73  72  96 CALM      30.00F                  

$$

ALZ051>060-200800-
INTERIOR SOUTHWEST AND SOUTH CENTRAL ALABAMA
  
CITY           SKY/WX    TMP DP  RH WIND       PRES   REMARKS
GREENVILLE     FAIR      72  64  76 CALM      30.02S                  
EVERGREEN      FAIR      72  67  84 CALM      30.03R                  
ATMORE*          N/A    N/A N/A N/A CALM      30.01F                  
ANDALUSIA/OPP  CLOUDY    71  64  78 CALM      30.02S                  
ANDALUSIA*       N/A     70  66  88 W2        30.03S                  
FLORALA APT    MOCLDY    69  66  90 CALM      30.04F                  
FLORALA*         N/A     54  52  94 CALM      30.03F                  

$$

FLZ001>006-200800-
WESTERN FLORIDA PANHANDLE
  
CITY           SKY/WX    TMP DP  RH WIND       PRES   REMARKS
PENSACOLA      FAIR      76  75  97 CALM      30.00F                  
NAS PENSACOLA  FAIR      73  72  96 CALM      30.00F                  
MILTON         CLOUDY    73  72  96 CALM      30.01F                  
WHTNG S FIELD  CLOUDY    70  70 100 CALM      30.01F                  

  
CITY           SKY/WX    TMP DP  RH WIND       PRES   REMARKS
JAY*             N/A     73  72  94 CALM      30.03F                  
DUKE FIELD     MOCLDY    69  69 100 CALM      30.01F                  
CRESTVIEW      FAIR      67  65  93 CALM      30.03S                  
VALPARAISO     CLOUDY    77  71  84 CALM      30.01S                  
DESTIN         FAIR      77  72  84 CALM      30.01S                  

$$

MSZ076-079-200800-
INTERIOR SOUTHEAST MISSISSIPPI
  
CITY           SKY/WX    TMP DP  RH WIND       PRES   REMARKS
LEAKESVILLE*     N/A    N/A N/A N/A CALM      30.03                   
AGRICOLA*        N/A     68  68 100 CALM      30.02                   

$$

MARINE OBSERVATIONS
  
STATION/POSITION TIME  TEMP    WIND        PRES    WAVE
                       AIR SEA DIR/SP/G            HT/PER
                 (UTC) (F)     (DEG/KT/KT) (MB)    (FT/S)
PETIT BOIS ISLND 0642   78     180/ 11/ 13 1016.7F
GRAND BAY        0530   79     160/ 10     1017.0S
KATRINA CUT      0630  -22     180/  9     1016.6R
CEDAR POINT      0630   78     160/  8     1016.3S
E DAUPHIN ISLAND 0600   78     160/ 10/ 10 1016.1F
USCG MOBILE BAY  0642   74 79   CALM  /  2 1016.2F
STATE DOCKS      0642   72 75              1016.1F
MEAHER PARK      0630   74        CALM     1016.6F
WEEKS BAY        0545   72                 1016.0S
FORT MORGAN      0648   78     180/ 10/ 11 1016.0F
12 S ORANGE BCH  0640                        N/A     2/ 6
PENSACOLA BAY    0648   78 81  170/  5/  7 1016.3F
64 S DAUPHIN ISL 0650          160/  6/  6 1016.2F   3/ 6

$$

SELECTED LOCATIONS ACROSS THE REGION
  
CITY           SKY/WX    TMP DP  RH WIND       PRES   REMARKS
NEW ORLEANS    FAIR      76  71  85 SE6       29.98S                  
GULFPORT       FAIR      69  68  96 CALM      29.98F                  
PASCAGOULA AP  FAIR      68  66  93 CALM      29.99F FOG              
PASCAGOULA*      N/A     77  75  94 CALM      29.99                   
HATTIESBURG    FAIR      65  64  97 CALM      30.01F                  
LAUREL         FAIR      66  66 100 CALM      30.02F                  
MERIDIAN       FAIR      69  66  90 SW3       30.01F                  
JACKSON        CLOUDY    71  68  90 S6        30.00R                  
MONTGOMERY     FAIR      70  66  87 CALM      30.02S                  
TROY           CLOUDY    68  65  90 CALM      30.03S                  
ASHFORD*         N/A     70  66  88 W2        30.03S                  
DOTHAN         CLOUDY    72  67  84 W6        30.05F                  
PANAMA CITY    FAIR      68  66  93 CALM      30.01S                  

$$